Regional Weather Roundup
Issued by NWS Charleston, SC

Home | Current Version | Previous Version | Text Only | Print | Product List | Glossary On
Versions: 1 2 3 4 5 6 7 8 9 10 11 12 13 14 15 16 17 18 19 20 21 22 23 24 25 26 27 28 29 30 31 32 33 34 35 36 37 38 39 40 41 42 43 44 45 46 47 48 49 50
000
ASUS42 KCHS 180825
RWRCHS

REGIONAL WEATHER ROUNDUP
NATIONAL WEATHER SERVICE CHARLESTON SC
400 AM EDT THU SEP 18 2014

NOTE: "FAIR" INDICATES FEW OR NO CLOUDS BELOW 12,000 FEET WITH NO
SIGNIFICANT WEATHER AND/OR OBSTRUCTIONS TO VISIBILITY.

NOT ALL STATIONS ARE QUALITY CONTROLLED BY THE NATIONAL
WEATHER SERVICE. USE DATA WITH CAUTION...ESPECIALLY
DEWPOINT OBSERVATIONS.

SCZ027-030-031-034>040-042>050-180900-
...SOUTH CAROLINA...

CITY           SKY/WX    TMP DP  RH WIND       PRES   REMARKS
N CHARLESTON   PTCLDY    70  67  90 N5        29.89F
WATERFRONT PRK   N/A     75 N/A N/A W5          N/A
FORT JOHNSON   NOT AVBL
MOUNT PLEASANT FAIR      70  70 100 CALM      29.89S
JOHNS ISLAND   SUNNY     72  72 100 CALM      29.89S
PINOPOLIS        N/A     77  70  78 NE5       29.81S
MONCKS CORNER    N/A     68  68 100 CALM      29.89F FOG
SUMMERVILLE    FAIR      68  68 100 CALM      29.90F
BEAUFORT MCAS  PTCLDY    71  69  93 CALM      29.89S
BEAUFORT ARPT  FAIR      72  72 100 CALM      29.88F FOG
HILTON HEAD IS PTCLDY    70  70 100 CALM      29.89F
GEORGETOWN     NOT AVBL
WALTERBORO     SUNNY     68 N/A N/A CALM      29.90F
ORANGEBURG     PTCLDY    67  65  93 CALM      29.91S FOG
BARNWELL       CLOUDY    68  66  94 CALM      29.91F
AIKEN          FAIR      66  66 100 CALM      29.95S FOG
MANNING        FAIR      66 N/A N/A CALM      29.90S
KINGSTREE      NOT AVBL
COLUMBIA       PTCLDY    66  63  90 CALM      29.90F
SUMTER         CLEAR     67  64  89 NW2       29.89S
FLORENCE       CLOUDY    71  69  93 NE3       29.90S
MYRTLE BEACH   CLEAR     72  66  83 N5        29.89S
N MYRTLE BEACH CLEAR     69  67  93 NE5       29.88F

$$

GAZ063-065-086>088-099>101-113>116-118-119-134-136>141-150-180900-
...GEORGIA...

CITY           SKY/WX    TMP DP  RH WIND       PRES   REMARKS
SAVANNAH ARPT  CLEAR     71  68  90 E3        29.90R
HUNTER AAF     CLEAR     71  71 100 NW1       29.87S
FORT STEWART   FOG       71  70  97 CALM      29.88S VSB 1/2
STATESBORO     NOT AVBL
SYLVANIA       FOG       70  70  99 CALM      29.90F VSB 3/4
CLAXTON        FAIR     N/A N/A N/A CALM      29.89S
THOMSON        CLOUDY    69  69 100 CALM      29.95S
AUGUSTA-BUSH   FOG       67  66  97 CALM      29.89F VSB 1
AUGUSTA-DANIEL MOCLDY    69  68  96 NE5       29.91F
SWAINSBORO     CLOUDY    70  70 100 NE3       29.90S FOG
VIDALIA        CLEAR     70  70 100 E3        29.88F
ALMA           CLEAR     69  67  93 CALM      29.88S
WAYCROSS       CLEAR     73  72  98 CALM      29.87F
JESUP          FAIR      70  70 100 CALM      29.89S
BRUNSWICK      CLEAR     70  68  94 CALM      29.89S
SAINT SIMONS   CLEAR     74  72  93 CALM      29.88S

$$

SCZ027-028-034-036>038-045-046-048>050-GAZ119-141-180900-
...LAKE AND SUPPLEMENTAL COASTAL OBSERVATIONS...

STATION/POSITION TIME  TEMP    WIND        PRES    WAVE   SWELL
                       AIR SEA DIR/SP/G            HT/PER HT/PER/DIR
                 (UTC) (F)     (DEG/KT/KT) (MB)    (FT/S) (FT/S/D)
UPR LAKE MARION  NOT AVBL
WINYAH BAY       0800   70     340/  4     1012.0S
LAKE MURRAY      0700   67     350/  2/  5 1012.2F
ACE BASIN NERRS  0800   69        CALM     1012.0S
FORT PULASKI     0800   76     110/  5/  8 1012.1F
SAPELO ISLAND    0800   71      70/  2     1012.0S

$$

ANZ835-935-AMZ111-154-330-350-352-354-374-450-454-472-180900-
...C-MAN AND BUOY OBSERVATIONS...

STATION/POSITION TIME  TEMP    WIND        PRES    WAVE   SWELL
                       AIR SEA DIR/SP/G            HT/PER HT/PER/DIR
                 (UTC) (F)     (DEG/KT/KT) (MB)    (FT/S) (FT/S/D)
FOLLY BEACH CMAN 0800   75     360/  5/  7 1012.4F
BUOY 41004       0800   80 83  350/  4/  6 1011.5F   3/11   3/11
BUOY 41008       0800   79 84   60/  2/  4 1012.1R   3/12   3/ 90/12
5E ST. MARYS GA  0800      84                N/A     3/13   2/100/13
FRYING PAN BUOY  NOT AVBL
BUOY 41025       0800   73      20/ 12/ 16 1011.9S   6/11   5/ 70/11
CAPE LOOKOUT NC  0800   75      40/ 16/ 18 1011.9F
BUOY 41002       0734   78 82  360/  8/ 10 1010.8F   5/12   5/ 80/12
BUOY 41010       0800   80 85  350/  8/ 10 1011.1R   5/12   5/ 60/12
BUOY 41012       NOT AVBL
ST AUGUSTINE FL  0800   74     220/  2/  3 1012.2F
CAPERS NEARSHORE 0700   78      10/  6/  8   N/A
FRIPP NEARSHORE  NOT AVBL


$$



USA.gov is the U.S. government's official web portal to all federal, state and local government web resources and services.